User: anonymous   Login
Location: Laterina
(43.5167°N, 11.7167°E)
Time: 02:05:39
(UTC+00:00)
Language:

STRAND 1 - Orbit

View from above orbital plane
View from above orbital plane
View from above satellite
View from above satellite

Ground track
Ground track

The orbit data is extracted from the following two-line orbital elements,

1 39090U 13009E   21057.41522534  .00000066  00000-0  38074-4 0  9993
2 39090  98.4361 262.1738 0008085 246.6100 113.4236 14.35170225419119
Epoch (UTC): 26 February 2021 09:57:55
Eccentricity: 0.0008085
inclination: 98.4361°
perigee height: 769 km
apogee height: 780 km
right ascension of ascending node: 262.1738°
argument of perigee: 246.6100°
revolutions per day: 14.35170225
mean anomaly at epoch: 113.4236°
orbit number at epoch: 41911

The dashed part of the orbit path shows where the satellite is in the earth's shadow,  

DLR